Date String (YYYY-MM-DD hh:mm:ss) UTC,Instrument flags,absolute air pressure of the measurement (hPa),sample flow rate (lpm),inlet stack bypass flow (lpm),air temperature of the measurement (°C),ambient temperature measured by the external sensor (°C),aerosol sample conditioner tube jacket temperature (°C),OPC LED temperature (°C),internal box temperature (°C),relative humidity of the measurement (%),span deviation,mass concentration of particles derived from Lorenz-Mie calculation of OPC scattering (μg/m³),mass concentration of particles derived from Lorenz-Mie calculation of OPC scattering (μg/m³),mass concentration of particles derived from Lorenz-Mie calculation of OPC scattering (μg/m³)
DateTimeUTC,F1_M11,P_M11,Q1_M11,Q2_M11,T1_M11,T2_M11,T3_M11,T4_M11,T5_M11,U1_M11,ZSPAN_M11,X2_M11,X0_M11,X1_M11
2023-07-11 01:00:00,SystemResetWarning,0829.8,5.01,000.00,028.7,025.0,000.0,036.9,030.0,30.5,0000.0,0004.81,0012.96,0004.00
2023-07-11 01:01:00,SystemResetWarning,0829.9,5.00,000.00,028.6,025.4,000.0,036.9,030.0,30.6,0000.0,0004.82,0012.41,0004.00
2023-07-11 01:02:00,SystemResetWarning,0829.9,5.00,000.00,028.6,025.8,000.0,037.0,030.1,30.8,0000.0,0004.82,0012.85,0004.00
2023-07-11 01:03:00,SystemResetWarning,0829.9,5.00,000.00,028.7,026.3,000.0,037.0,030.3,30.7,0000.0,0004.84,0012.90,0003.99
2023-07-11 01:04:00,SystemResetWarning,0830.0,5.00,000.00,028.7,026.8,000.0,037.0,030.4,29.5,0000.0,0004.87,0013.38,0003.98
2023-07-11 01:05:00,SystemResetWarning,0830.0,5.01,000.00,028.8,027.2,000.0,037.0,030.5,28.6,0000.0,0004.92,0013.99,0003.98
2023-07-11 01:06:00,SystemResetWarning,0830.0,5.00,000.00,028.8,027.5,000.0,037.1,030.6,28.4,0000.0,0004.95,0014.52,0003.97
2023-07-11 01:07:00,SystemResetWarning,0830.0,4.99,000.00,028.9,027.5,000.0,037.1,030.7,28.4,0000.0,0004.92,0014.44,0003.96
2023-07-11 01:08:00,SystemResetWarning,0829.9,5.00,000.00,028.9,026.1,000.0,037.0,030.5,28.4,0000.0,0004.97,0014.94,0003.96
2023-07-11 01:09:00,SystemResetWarning,0829.9,5.00,000.00,028.8,025.0,000.0,036.9,030.2,28.6,0000.0,0004.96,0015.18,0003.96
2023-07-11 01:10:00,SystemResetWarning,0829.8,5.00,000.00,028.7,024.9,000.0,036.9,030.0,28.7,0000.0,0004.95,0015.34,0003.96
2023-07-11 01:11:00,SystemResetWarning,0829.8,5.01,000.00,028.6,025.3,000.0,036.9,030.0,29.0,0000.0,0004.88,0015.01,0003.95
2023-07-11 01:12:00,SystemResetWarning,0829.8,5.00,000.00,028.6,025.8,000.0,037.0,030.1,28.8,0000.0,0004.89,0015.98,0003.95
2023-07-11 01:13:00,SystemResetWarning,0829.9,4.99,000.00,028.7,026.3,000.0,037.0,030.3,29.5,0000.0,0004.86,0016.15,0003.95
2023-07-11 01:14:00,SystemResetWarning,0829.8,5.00,000.00,028.7,026.7,000.0,037.0,030.4,28.5,0000.0,0004.83,0015.99,0003.94
2023-07-11 01:15:00,SystemResetWarning,0829.9,5.00,000.00,028.8,027.1,000.0,037.0,030.5,28.6,0000.0,0004.79,0016.57,0003.94
2023-07-11 01:16:00,SystemResetWarning,0829.9,4.99,000.00,028.8,027.4,000.0,037.1,030.6,29.0,0000.0,0004.74,0016.15,0003.94
2023-07-11 01:17:00,SystemResetWarning,0829.9,4.99,000.00,028.9,026.9,000.0,037.0,030.5,28.7,0000.0,0004.74,0015.17,0003.95
2023-07-11 01:18:00,SystemResetWarning,0829.9,5.00,000.00,028.8,025.4,000.0,036.9,030.3,28.6,0000.0,0004.76,0015.31,0003.96
2023-07-11 01:19:00,SystemResetWarning,0829.9,5.01,000.00,028.7,024.8,000.0,036.9,030.1,28.0,0000.0,0004.75,0015.58,0003.96
2023-07-11 01:20:00,SystemResetWarning,0829.9,5.00,000.00,028.7,025.0,000.0,036.9,030.0,28.3,0000.0,0004.77,0015.37,0003.97
2023-07-11 01:21:00,SystemResetWarning,0829.9,5.00,000.00,028.6,025.4,000.0,036.9,030.0,28.4,0000.0,0004.79,0015.30,0003.99
2023-07-11 01:22:00,SystemResetWarning,0829.9,5.00,000.00,028.6,025.9,000.0,037.0,030.2,27.9,0000.0,0004.82,0014.81,0004.00
2023-07-11 01:23:00,SystemResetWarning,0829.9,4.99,000.00,028.7,026.4,000.0,037.0,030.3,27.9,0000.0,0004.79,0014.08,0004.00
2023-07-11 01:24:00,SystemResetWarning,0829.9,5.00,000.00,028.7,026.8,000.0,037.0,030.4,27.9,0000.0,0004.81,0014.58,0004.01
2023-07-11 01:25:00,SystemResetWarning,0829.9,5.00,000.00,028.8,027.2,000.0,037.0,030.5,27.3,0000.0,0004.85,0014.82,0004.02
2023-07-11 01:26:00,SystemResetWarning,0830.0,5.01,000.00,028.8,027.5,000.0,037.1,030.6,26.9,0000.0,0004.92,0014.21,0004.05
2023-07-11 01:27:00,SystemResetWarning,0829.9,5.00,000.00,028.9,027.2,000.0,037.0,030.6,26.8,0000.0,0004.95,0013.94,0004.06
2023-07-11 01:28:00,SystemResetWarning,0829.9,4.99,000.00,028.8,025.7,000.0,036.9,030.3,26.5,0000.0,0004.95,0014.73,0004.07
2023-07-11 01:29:00,SystemResetWarning,0829.9,5.01,000.00,028.7,024.9,000.0,036.9,030.1,26.7,0000.0,0004.99,0015.04,0004.07
2023-07-11 01:30:00,SystemResetWarning,0829.9,5.01,000.00,028.7,025.0,000.0,036.9,030.0,27.0,0000.0,0005.01,0014.79,0004.07
2023-07-11 01:31:00,SystemResetWarning,0829.9,4.99,000.00,028.6,025.4,000.0,036.9,030.0,27.0,0000.0,0005.04,0015.06,0004.07
2023-07-11 01:32:00,SystemResetWarning,0829.9,4.99,000.00,028.6,025.9,000.0,036.9,030.2,26.8,0000.0,0005.05,0014.90,0004.06
2023-07-11 01:33:00,SystemResetWarning,0829.9,5.00,000.00,028.7,026.4,000.0,037.0,030.3,26.7,0000.0,0005.08,0014.91,0004.06
2023-07-11 01:34:00,SystemResetWarning,0829.9,5.01,000.00,028.7,026.8,000.0,037.0,030.4,26.7,0000.0,0005.05,0014.06,0004.07
2023-07-11 01:35:00,SystemResetWarning,0830.0,5.00,000.00,028.8,027.2,000.0,037.0,030.5,26.7,0000.0,0005.08,0014.25,0004.06
2023-07-11 01:36:00,SystemResetWarning,0830.0,5.00,000.00,028.8,027.5,000.0,037.1,030.6,26.4,0000.0,0005.06,0014.33,0004.05
2023-07-11 01:37:00,SystemResetWarning,0830.0,5.00,000.00,028.9,027.3,000.0,037.1,030.6,26.5,0000.0,0004.99,0014.31,0004.03
2023-07-11 01:38:00,SystemResetWarning,0829.9,4.98,000.00,028.8,025.8,000.0,037.0,030.3,26.7,0000.0,0004.95,0014.52,0004.01
2023-07-11 01:39:00,SystemResetWarning,0829.9,5.00,000.00,028.7,024.9,000.0,036.9,030.1,26.4,0000.0,0004.97,0015.79,0004.01
2023-07-11 01:40:00,SystemResetWarning,0829.9,5.01,000.00,028.7,024.9,000.0,036.9,030.0,26.6,0000.0,0005.00,0016.70,0004.00
2023-07-11 01:41:00,SystemResetWarning,0829.9,5.00,000.00,028.6,025.3,000.0,036.9,030.0,26.7,0000.0,0004.96,0016.28,0004.01
2023-07-11 01:42:00,SystemResetWarning,0829.9,4.99,000.00,028.6,025.8,000.0,036.9,030.1,26.7,0000.0,0004.96,0016.09,0004.01
2023-07-11 01:43:00,SystemResetWarning,0830.0,5.00,000.00,028.6,026.2,000.0,036.9,030.2,26.5,0000.0,0004.95,0016.47,0004.00
2023-07-11 01:44:00,SystemResetWarning,0830.0,5.00,000.00,028.7,026.7,000.0,037.0,030.3,26.3,0000.0,0004.93,0016.77,0004.00
2023-07-11 01:45:00,SystemResetWarning,0830.0,5.00,000.00,028.7,027.1,000.0,037.0,030.4,25.8,0000.0,0004.95,0016.77,0004.00
2023-07-11 01:46:00,SystemResetWarning,0830.0,4.99,000.00,028.8,027.4,000.0,037.1,030.5,25.7,0000.0,0004.96,0015.76,0003.99
2023-07-11 01:47:00,SystemResetWarning,0830.1,4.99,000.00,028.8,027.4,000.0,037.1,030.6,25.6,0000.0,0004.94,0015.20,0004.00
2023-07-11 01:48:00,SystemResetWarning,0830.0,5.00,000.00,028.8,026.0,000.0,037.0,030.4,25.2,0000.0,0004.94,0014.61,0004.01
2023-07-11 01:49:00,SystemResetWarning,0830.0,5.01,000.00,028.7,024.9,000.0,036.9,030.1,25.0,0000.0,0004.98,0014.50,0004.01
2023-07-11 01:50:00,SystemResetWarning,0830.0,5.01,000.00,028.7,024.8,000.0,036.8,030.0,24.8,0000.0,0004.96,0012.87,0004.01
2023-07-11 01:51:00,SystemResetWarning,0829.9,5.01,000.00,028.6,025.1,000.0,036.9,029.9,25.4,0000.0,0004.91,0011.28,0004.00
2023-07-11 01:52:00,SystemResetWarning,0829.9,5.00,000.00,028.6,025.6,000.0,036.9,030.0,25.9,0000.0,0004.88,0010.72,0004.00
2023-07-11 01:53:00,SystemResetWarning,0829.9,4.99,000.00,028.6,026.1,000.0,036.9,030.1,25.8,0000.0,0004.83,0010.44,0003.99
2023-07-11 01:54:00,SystemResetWarning,0829.9,5.00,000.00,028.6,026.5,000.0,037.0,030.3,25.6,0000.0,0004.81,0010.33,0003.99
2023-07-11 01:55:00,SystemResetWarning,0829.9,5.00,000.00,028.7,026.9,000.0,037.0,030.4,25.4,0000.0,0004.79,0010.12,0003.99
2023-07-11 01:56:00,SystemResetWarning,0830.0,5.00,000.00,028.7,027.3,000.0,037.0,030.5,25.4,0000.0,0004.79,0009.93,0003.99
2023-07-11 01:57:00,SystemResetWarning,0830.0,5.00,000.00,028.8,027.5,000.0,037.1,030.6,25.2,0000.0,0004.74,0009.70,0003.99
2023-07-11 01:58:00,SystemResetWarning,0830.0,4.99,000.00,028.8,027.0,000.0,037.0,030.6,25.0,0000.0,0004.73,0009.85,0003.99
2023-07-11 01:59:00,SystemResetWarning,0829.9,5.00,000.00,028.8,025.7,000.0,036.9,030.3,24.9,0000.0,0004.73,0010.15,0003.98
